When you browse on this site, cookies collect data to enhance your experience and personalize the content and advertising you see.
Visit our Privacy Policy to learn more. By continuing to use the site, you agree to this use of cookies and data.
  • en Suisse
  • Liste des pays
  • À 7 jours
  • Température de l'eau
  • Carte satellitaire
  • Carte météo
  • Widgets météo
  • user-avatar
    Se connecter

    Météo par heure à Yanggu

    Ce jour, 24 Juillet, Mercredi

    Heure Température Précipitation Vent Pression Humidité
    00:00 +31°C° 0 mm 1 m/s 745 mmHg 59%
    01:00 +31°C° 0 mm 1 m/s 745 mmHg 62%
    02:00 +30°C° 0 mm 1 m/s 746 mmHg 67%
    03:00 +30°C° 0 mm 1 m/s 746 mmHg 68%
    04:00 +30°C° 0 mm 1 m/s 745 mmHg 70%
    05:00 +29°C° 0 mm 1 m/s 745 mmHg 71%
    06:00 +31°C° 0 mm 1 m/s 746 mmHg 67%
    07:00 +32°C° 0 mm 1 m/s 746 mmHg 62%
    08:00 +34°C° 0 mm 1 m/s 746 mmHg 58%
    09:00 +36°C° 0 mm 1 m/s 746 mmHg 48%
    10:00 +40°C° 0 mm 1 m/s 746 mmHg 39%
    11:00 +42°C° 0 mm 1 m/s 746 mmHg 29%
    12:00 +42°C° 0 mm 1 m/s 746 mmHg 27%
    13:00 +43°C° 0 mm 1 m/s 745 mmHg 24%
    14:00 +44°C° 0 mm 1 m/s 745 mmHg 22%
    15:00 +45°C° 0 mm 2 m/s 745 mmHg 22%
    16:00 +45°C° 0 mm 2 m/s 745 mmHg 22%
    17:00 +45°C° 0 mm 3 m/s 744 mmHg 22%
    18:00 +43°C° 0 mm 3 m/s 745 mmHg 26%
    19:00 +39°C° 0 mm 3 m/s 745 mmHg 30%
    20:00 +37°C° 0 mm 2 m/s 745 mmHg 34%
    21:00 +37°C° 0 mm 2 m/s 745 mmHg 36%
    22:00 +36°C° 0 mm 2 m/s 746 mmHg 38%
    23:00 +36°C° 0 mm 2 m/s 746 mmHg 40%

    Demain, 25 Juillet, Jeudi

    Heure Température Précipitation Vent Pression Humidité
    00:00 +35°C° 0 mm 2 m/s 746 mmHg 41%
    01:00 +34°C° 0 mm 1 m/s 746 mmHg 42%
    02:00 +34°C° 0 mm 1 m/s 746 mmHg 43%
    03:00 +33°C° 0 mm 1 m/s 746 mmHg 45%
    04:00 +34°C° 0 mm 2 m/s 746 mmHg 47%
    05:00 +34°C° 0 mm 2 m/s 746 mmHg 48%
    06:00 +35°C° 0 mm 2 m/s 746 mmHg 47%
    07:00 +35°C° 0 mm 2 m/s 746 mmHg 47%
    08:00 +36°C° 0 mm 3 m/s 747 mmHg 46%
    09:00 +37°C° 0 mm 3 m/s 747 mmHg 43%
    10:00 +38°C° 0 mm 3 m/s 747 mmHg 41%
    11:00 +39°C° 0 mm 3 m/s 747 mmHg 38%
    12:00 +40°C° 0 mm 3 m/s 746 mmHg 35%
    13:00 +42°C° 0 mm 3 m/s 746 mmHg 32%
    14:00 +44°C° 0 mm 3 m/s 745 mmHg 29%
    15:00 +43°C° 0 mm 4 m/s 745 mmHg 29%
    16:00 +43°C° 0 mm 4 m/s 745 mmHg 28%
    17:00 +43°C° 0 mm 4 m/s 744 mmHg 27%
    18:00 +42°C° 0 mm 3 m/s 745 mmHg 32%
    19:00 +39°C° 0 mm 3 m/s 745 mmHg 36%
    20:00 +37°C° 0 mm 3 m/s 745 mmHg 40%
    21:00 +36°C° 0 mm 3 m/s 745 mmHg 45%
    22:00 +34°C° 0 mm 4 m/s 746 mmHg 51%
    23:00 +32°C° 0 mm 4 m/s 746 mmHg 56%

    Après-demain, 26 Juillet, Vendredi

    Heure Température Précipitation Vent Pression Humidité
    00:00 +32°C° 0 mm 4 m/s 746 mmHg 60%
    01:00 +30°C° 0 mm 4 m/s 745 mmHg 64%
    02:00 +30°C° 0 mm 4 m/s 745 mmHg 68%
    03:00 +30°C° 0 mm 4 m/s 745 mmHg 73%
    04:00 +30°C° 0 mm 3 m/s 745 mmHg 77%
    05:00 +29°C° 0 mm 3 m/s 745 mmHg 82%
    06:00 +31°C° 0 mm 3 m/s 745 mmHg 78%
    07:00 +33°C° 0 mm 3 m/s 746 mmHg 73%
    08:00 +34°C° 0 mm 3 m/s 746 mmHg 69%
    09:00 +36°C° 0 mm 3 m/s 746 mmHg 60%
    10:00 +39°C° 0 mm 3 m/s 746 mmHg 51%
    11:00 +42°C° 0 mm 3 m/s 746 mmHg 42%
    12:00 +43°C° 0 mm 3 m/s 745 mmHg 37%
    13:00 +44°C° 0 mm 3 m/s 744 mmHg 32%
    14:00 +45°C° 0 mm 3 m/s 744 mmHg 28%
    15:00 +45°C° 0 mm 3 m/s 744 mmHg 28%
    16:00 +44°C° 0 mm 3 m/s 743 mmHg 29%
    17:00 +44°C° 0 mm 4 m/s 743 mmHg 29%
    18:00 +42°C° 0 mm 4 m/s 744 mmHg 36%
    19:00 +40°C° 0 mm 4 m/s 744 mmHg 43%
    20:00 +37°C° 0 mm 5 m/s 744 mmHg 50%
    21:00 +36°C° 0 mm 5 m/s 744 mmHg 56%
    22:00 +34°C° 0 mm 4 m/s 744 mmHg 61%
    23:00 +33°C° 0 mm 4 m/s 745 mmHg 67%

    27 Juillet, Samedi

    Heure Température Précipitation Vent Pression Humidité
    00:00 +33°C° 0 mm 4 m/s 745 mmHg 72%
    01:00 +32°C° 0 mm 4 m/s 745 mmHg 76%
    02:00 +30°C° 0 mm 4 m/s 745 mmHg 81%
    03:00 +29°C° 0 mm 4 m/s 745 mmHg 83%
    04:00 +29°C° 0 mm 4 m/s 745 mmHg 85%
    05:00 +28°C° 0 mm 3 m/s 745 mmHg 87%
    06:00 +29°C° 0 mm 4 m/s 745 mmHg 83%
    07:00 +30°C° 0 mm 4 m/s 745 mmHg 79%
    08:00 +32°C° 0 mm 4 m/s 745 mmHg 75%
    09:00 +35°C° 0 mm 4 m/s 745 mmHg 66%
    10:00 +37°C° 0 mm 4 m/s 745 mmHg 57%
    11:00 +40°C° 0 mm 4 m/s 745 mmHg 49%
    12:00 +40°C° 0 mm 4 m/s 745 mmHg 47%
    13:00 +40°C° 0 mm 3 m/s 744 mmHg 45%
    14:00 +40°C° 0 mm 3 m/s 744 mmHg 43%
    15:00 +40°C° 0 mm 3 m/s 743 mmHg 44%
    16:00 +40°C° 0 mm 3 m/s 743 mmHg 44%
    17:00 +40°C° 0 mm 3 m/s 743 mmHg 45%
    18:00 +38°C° 0.5 mm 3 m/s 744 mmHg 54%
    19:00 +35°C° 0.5 mm 4 m/s 744 mmHg 64%
    20:00 +33°C° 0.5 mm 4 m/s 744 mmHg 73%
    21:00 +33°C° 0.3 mm 4 m/s 744 mmHg 76%
    22:00 +32°C° 0.3 mm 4 m/s 745 mmHg 79%
    23:00 +32°C° 0.3 mm 5 m/s 745 mmHg 82%

    28 Juillet, Dimanche

    Heure Température Précipitation Vent Pression Humidité
    00:00 +30°C° 0.5 mm 4 m/s 745 mmHg 85%
    01:00 +30°C° 0.5 mm 4 m/s 745 mmHg 88%
    02:00 +29°C° 0.5 mm 3 m/s 745 mmHg 91%
    03:00 +29°C° 0 mm 3 m/s 745 mmHg 92%
    04:00 +29°C° 0 mm 3 m/s 745 mmHg 93%
    05:00 +29°C° 0 mm 3 m/s 745 mmHg 94%
    06:00 +30°C° 0 mm 3 m/s 745 mmHg 90%
    07:00 +32°C° 0 mm 4 m/s 745 mmHg 86%
    08:00 +33°C° 0 mm 4 m/s 746 mmHg 82%
    09:00 +35°C° 0.3 mm 4 m/s 746 mmHg 74%
    10:00 +37°C° 0.3 mm 3 m/s 746 mmHg 65%
    11:00 +39°C° 0.3 mm 3 m/s 745 mmHg 56%
    12:00 +40°C° 0 mm 3 m/s 745 mmHg 50%
    13:00 +42°C° 0 mm 3 m/s 745 mmHg 44%
    14:00 +44°C° 0 mm 3 m/s 744 mmHg 38%
    15:00 +44°C° 0 mm 4 m/s 744 mmHg 38%
    16:00 +43°C° 0 mm 4 m/s 744 mmHg 39%
    17:00 +43°C° 0 mm 5 m/s 743 mmHg 40%
    18:00 +42°C° 0 mm 5 m/s 744 mmHg 46%
    19:00 +40°C° 0 mm 5 m/s 744 mmHg 51%
    20:00 +37°C° 0 mm 5 m/s 745 mmHg 56%
    21:00 +37°C° 0 mm 5 m/s 745 mmHg 60%
    22:00 +36°C° 0 mm 5 m/s 745 mmHg 63%
    23:00 +35°C° 0 mm 5 m/s 745 mmHg 67%

    29 Juillet, Lundi

    Heure Température Précipitation Vent Pression Humidité
    00:00 +34°C° 0.2 mm 4 m/s 745 mmHg 71%
    01:00 +34°C° 0.2 mm 4 m/s 745 mmHg 75%
    02:00 +33°C° 0.2 mm 4 m/s 745 mmHg 79%
    03:00 +31°C° 0.7 mm 3 m/s 745 mmHg 80%
    04:00 +31°C° 0.7 mm 3 m/s 745 mmHg 82%
    05:00 +31°C° 0.7 mm 3 m/s 745 mmHg 84%
    06:00 +32°C° 0.6 mm 4 m/s 745 mmHg 80%
    07:00 +33°C° 0.6 mm 4 m/s 745 mmHg 76%
    08:00 +34°C° 0.6 mm 5 m/s 746 mmHg 71%
    09:00 +36°C° 0 mm 5 m/s 745 mmHg 63%
    10:00 +39°C° 0 mm 5 m/s 745 mmHg 55%
    11:00 +41°C° 0 mm 5 m/s 745 mmHg 47%
    12:00 +41°C° 0.4 mm 5 m/s 745 mmHg 48%
    13:00 +41°C° 0.4 mm 5 m/s 745 mmHg 48%
    14:00 +41°C° 0.4 mm 4 m/s 744 mmHg 49%
    15:00 +39°C° 0.8 mm 5 m/s 744 mmHg 57%
    16:00 +36°C° 0.8 mm 6 m/s 744 mmHg 64%
    17:00 +34°C° 0.8 mm 6 m/s 744 mmHg 72%
    18:00 +32°C° 1.7 mm 6 m/s 745 mmHg 78%
    19:00 +29°C° 1.7 mm 5 m/s 745 mmHg 83%
    20:00 +27°C° 1.7 mm 4 m/s 745 mmHg 88%
    21:00 +27°C° 0.4 mm 4 m/s 746 mmHg 89%
    22:00 +27°C° 0.4 mm 3 m/s 746 mmHg 89%
    23:00 +27°C° 0.4 mm 2 m/s 746 mmHg 90%
    Voir plus